[Iaude] MPEC H35: 2024 HQ [a=1.29,e=0.28,i=3.9,H=29.4]
    mpec at cfa.harvard.edu 
    mpec at cfa.harvard.edu
       
    Fri Apr 19 07:51:27 EDT 2024
    
    
  
M.P.E.C. 2024-H35                                Issued 2024 April 19, 11:49 UT
     The Minor Planet Electronic Circulars contain information on unusual
         minor planets, routine data on comets and natural satellites,
         and occasional editorial announcements.  They are published
    on behalf of Division F of the International Astronomical Union by the
          Minor Planet Center, Smithsonian Astrophysical Observatory,
                          Cambridge, MA 02138, U.S.A.
			  
             Prepared using the Tamkin Foundation Computer Network
                              MPC at CFA.HARVARD.EDU
            URL https://www.minorplanetcenter.net/    ISSN 1523-6714
                                    2024 HQ                                     
Observations:
     K24H00Q*1C2024 04 18.26779914 39 02.010+16 54 59.00               VEH035G96
     K24H00Q 1C2024 04 18.27335514 39 26.760+16 55 48.80               VEH035G96
     K24H00Q 1C2024 04 18.27890414 39 51.580+16 56 37.20               VEH035G96
     K24H00Q 1C2024 04 18.28445714 40 16.560+16 57 26.20         19.66GVEH035G96
     K24H00Q  C2024 04 18.30048414 41 23.336+16 59 08.10         19.0 GVEH035H01
     K24H00Q  C2024 04 18.30393714 41 39.338+16 59 37.12         19.1 GVEH035H01
     K24H00Q  C2024 04 18.31439714 42 28.263+17 01 04.54         18.8 GVEH035H01
     K24H00Q  C2024 04 18.32121314 43 00.521+17 02 00.74         19.1 GVEH035H01
     K24H00Q KC2024 04 18.44120514 53 40.060+17 17 58.13         18.95GVEH035I52
     K24H00Q KC2024 04 18.44154514 53 42.086+17 18 00.11         18.71GVEH035I52
     K24H00Q KC2024 04 18.44188414 53 44.059+17 18 02.59         18.84GVEH035I52
     K24H00Q KC2024 04 18.44222214 53 46.075+17 18 04.79         18.88GVEH035I52
     K24H00Q KC2024 04 18.89165916 13 26.61 +17 42 09.8          18.6 GXEH035958
     K24H00Q KC2024 04 18.89503816 14 18.29 +17 42 06.6          17.5 GXEH035958
     K24H00Q KC2024 04 18.89842416 15 10.29 +17 42 02.3          17.8 GXEH035958
     K24H00Q KC2024 04 18.92856316 23 04.96 +17 40 08.3          18.6 GXEH035I93
     K24H00Q KC2024 04 18.93013416 23 30.54 +17 40 00.9          17.5 GXEH035I93
     K24H00Q KC2024 04 18.93283216 24 14.62 +17 39 48.3          18.1 GXEH035I93
Observer details:
958 Observatoire de Dax.  Observers P. Dupouy, J. B. de Vanssay.  Measurer P.
    Dupouy.  0.43-m f/2.7 Reflector + CCD.
G96 Mt. Lemmon Survey.  Observer J. B. Fazekas.  Measurers T. Beuden, V. F.
    Carvajal, D. Fay, J. B. Fazekas, D. C. Fuls, A. R. Gibbs, A. D. Grauer, H.
    Groeller, J. K. Hogan, R. A. Kowalski, S. M. Larson, G. J. Leonard, D.
    Rankin, R. L. Seaman, F. C. Shelly, K. W. Wierzchos.  1.5-m reflector +
    10K CCD.
H01 Magdalena Ridge Observatory, Socorro.  Observers W. H. Ryan, E. V. Ryan.
    Measurer W. H. Ryan.  2.4-m f/8.9 Ritchey-Chretien + CCD.
I52 Steward Observatory, Mt. Lemmon Station.  Observer J. K. Hogan.  Measurers
    T. Beuden, V. F. Carvajal, D. Fay, J. B. Fazekas, D. C. Fuls, A. R. Gibbs,
    A. D. Grauer, H. Groeller, J. K. Hogan, R. A. Kowalski, S. M. Larson, G.
    J. Leonard, D. Rankin, R. L. Seaman, F. C. Shelly, K. W. Wierzchos.  1.0-m
    prime focus + CCD.
I93 St Pardon de Conques.  Observer F. Losse.  0.40-m f/3.7 reflector + CCD.
Orbital elements:
2024 HQ                                                  Earth MOID = 0.0011 AU
Epoch 2024 Mar. 31.0 TT = JDT 2460400.5                 Veres                   
M 318.43827              (2000.0)            P               Q                  
n   0.67157939     Peri.  229.37090     -0.17392313     +0.98415542             
a   1.2914308      Node    30.66462     -0.88186219     -0.14007206             
e   0.2846234      Incl.    3.87650     -0.43825771     -0.10871032             
P   1.47           H   29.42          G   0.15           U   7                  
Residuals in seconds of arc
240418 G96  0.5-  0.6-    240418 H01  0.4+  0.0     240418 958  0.3+  0.6-
240418 G96  0.3-  0.1-    240418 H01  0.2+  0.0     240418 958  0.1+  0.2-
240418 G96  1.1-  0.8-    240418 I52  0.1-  0.3+    240418 958  1.5-  0.1+
240418 G96  2.1-  0.6-    240418 I52  0.2+  0.0     240418 I93  0.2+  0.0
240418 H01  0.1-  0.1-    240418 I52  0.3-  0.2+    240418 I93  0.3+  0.2-
240418 H01  0.2+  0.1-    240418 I52  0.1+  0.1+    240418 I93  0.3+  0.0
Ephemeris:
2024 HQ                  a,e,i = 1.29, 0.28, 4                   q = 0.9239
Date    TT    R. A. (2000) Decl.     Delta      r    Elong.  Phase     V
2024 03 20    13 00 04.9 +10 57 42   0.1383  1.1277   161.2    16.5    26.3
...
2024 04 04    13 05 26.3 +12 30 07   0.06653 1.0635   161.6    17.3    24.6
...
2024 04 12    13 13 19.1 +13 27 35   0.03155 1.0317   157.8    21.6    23.0
...
2024 04 18    14 19 58.5 +16 30 17   0.0062391.0095   151.3    28.5    19.7
2024 04 19    16 41 32.4 +17 58 09   0.0026601.0060   128.3    51.6    18.5
2024 04 20    22 35 35.5 -02 40 54   0.0034371.0024    50.8   129.0    22.7
...
2024 04 26    00 50 19.2 -12 13 07   0.02840 0.9826    33.1   146.0    29.4
...
2024 05 04    01 01 50.2 -12 11 54   0.06304 0.9594    38.0   139.7    30.1
...
2024 05 19    01 14 00.4 -10 21 18   0.1306  0.9286    47.6   126.5    30.2
M. P. C. Staff               (C) Copyright 2024 MPC           M.P.E.C. 2024-H35
    
    
More information about the Iaude
mailing list